Torna al catalogo

STARLINK-37065

AttivoComunicazioniVLEO
NORAD 68083·PAYLOAD·🇺🇸 United States

Lanciato Mar 4, 2026 da Vandenberg Space Force Base

Loading…

Prossimi Passaggi (prossime 24 ore)

TLE

AggiornatoSource: CelesTrak SupGP

Epoca: Sep 15, 2026, 03:29 UTC

1 68083C 26042Q   26258.14562500  .00060668  00000+0  17924-2 0  2583
2 68083  53.1597  14.9568 0001138  82.3569 321.8765 15.34362402    19

Traccia STARLINK-37065 in tempo reale con AllMySat

Download on the App Store